Tracking 21045 objects as of 3-Aug-2020
HD Live streaming from Space Station
objects crossing your sky now

COSMOS 397 DEB

Track COSMOS 397 DEB now!
10-day predictions


NORAD ID: 5018
Int'l Code: 1971-015M
Perigee: 574.9 km
Apogee: 2,125.5 km
Inclination: 65.7 °
Period: 112.5 minutes
Semi major axis: 7721 km
RCS: 0.1181 m2 (medium)
Launch date: February 25, 1971
Source: Commonwealth of Independent States (former USSR) (CIS)
Launch site: TYURATAM MISSILE AND SPACE COMPLEX (TTMTR)

Note: This is SATELLITE DEBRIS
aabbcc
Your satellite tracking list
Your tracking list is empty




NASA's NSSDC Master Catalog

Two Line Element Set (TLE):
1  5018U 71015M   20215.90639235 -.00000118 +00000-0 -17985-4 0  9991
2  5018 065.7128 037.2463 1004113 353.8711 005.0727 12.79592448304669
Source of the keplerian elements: AFSPC